Temperature
17 17 17 17 17 17 17 17 17 17 17 17 17 18 18 18 18 18 17 18 18 17 17 17 17 17 17 17 17 17 17 18 18 18 18 18 18 18 18 18 18 18 18
16 17 17 17 17 17 17 17 17 17 17 17 17 17 17 18 18 18 17 17 18 18 17 17 17 17 17 17 17 17 17 17 18 18 18 18 17 18 18 18 18 18 17
16 16 16 17 17 17 17 17 17 17 17 17 17 17 17 17 17 18 18 17 17 18 18 17 17 17 17 17 17 17 17 17 17 17 17 17 17 17 17 17 17 17 17
15 15 16 16 16 17 17 17 17 17 17 17 17 17 17 17 17 18 18 18 18 17 17 18 17 17 17 17 17 17 17 17 17 17 17 17 17 17 17 17 17 17 17
15 15 15 16 16 16 16 16 17 17 17 17 17 17 17 17 18 18 18 18 18 17 17 17 18 17 17 17 17 17 17 17 17 17 17 17 17 17 17 17 17 17 17
14 14 15 15 15 16 16 16 16 16 17 17 17 17 17 17 17 18 18 18 18 18 18 17 17 17 17 17 17 17 17 17 17 17 17 17 17 17 17 17 17 17 16
14 14 14 15 15 15 16 16 16 16 16 16 16 16 17 17 17 18 18 18 18 18 18 17 17 17 17 17 17 17 17 17 17 17 17 17 17 17 17 16 16 16 16
13 14 14 14 15 15 15 15 16 16 16 16 16 16 16 17 17 17 17 18 18 18 18 18 18 17 17 17 17 17 17 17 17 17 17 17 17 16 16 16 16 16 16
13 13 13 14 14 14 15 15 15 15 16 16 16 16 16 16 17 17 18 18 18 18 18 18 18 18 17 17 17 17 17 17 17 17 17 17 17 16 16 16 16 16 16
13 13 13 14 14 14 14 14 15 15 15 15 15 15 16 16 16 17 17 18 18 18 18 18 18 18 17 17 17 17 17 17 17 17 17 16 16 16 16 16 16 16 16
13 13 13 13 14 14 14 14 14 15 15 15 15 15 15 15 16 16 16 17 17 17 18 18 17 17 17 17 17 17 17 17 17 17 17 16 16 16 16 16 16 16 16
12 12 13 13 13 14 14 14 14 14 14 15 15 15 15 15 15 16 16 16 17 17 17 17 17 17 17 17 17 17 17 17 17 17 17 16 16 16 16 16 16 16 16
12 12 13 13 13 13 14 14 14 14 14 14 14 15 15 15 15 15 15 16 16 16 17 17 17 17 17 17 17 17 17 17 17 17 17 16 16 16 16 16 16 16 16
12 12 12 13 13 13 13 13 14 14 14 14 14 14 14 15 15 15 15 15 15 16 16 16 17 17 17 17 17 17 17 17 17 16 16 16 16 16 16 16 16 16 16
11 12 12 12 13 13 13 13 13 13 14 14 14 14 14 14 15 15 15 15 15 15 15 16 16 16 16 16 16 16 16 16 17 16 16 16 16 16 16 16 16 15 15
11 11 12 12 12 13 13 13 13 13 13 14 14 14 14 14 14 14 14 14 14 15 15 15 15 16 16 16 16 16 16 16 16 16 16 16 16 16 15 15 15 15 15
11 11 11 12 12 12 12 13 13 13 13 13 13 13 14 14 14 14 14 14 14 14 14 15 15 15 15 15 16 16 15 15 16 16 16 16 15 15 15 15 15 15 15
10 11 11 11 11 12 12 12 12 13 13 13 13 13 13 13 14 14 14 14 14 14 14 14 14 14 15 15 15 15 15 15 15 15 15 15 15 15 15 15 14 14 14
10 11 11 11 11 11 12 12 12 12 12 12 13 13 13 13 13 13 14 14 14 14 14 14 14 14 14 14 14 15 15 15 14 15 15 15 15 14 14 14 14 14 14
10 10 10 11 11 11 11 12 12 12 12 12 12 12 13 13 13 13 13 13 13 14 14 14 14 14 14 14 14 14 14 14 14 14 14 14 14 14 14 14 14 13 13
10 10 10 11 11 11 11 11 12 12 12 12 12 12 12 13 13 13 13 13 13 13 13 13 13 13 13 13 14 14 14 13 13 13 13 13 13 13 13 13 13 13 13
10 10 10 10 11 11 11 11 11 11 12 12 12 12 12 12 12 13 13 13 13 13 13 13 13 13 13 13 13 13 13 13 12 13 13 13 13 12 13 12 12 12 12
10 10 10 10 10 11 11 11 11 11 11 11 12 12 12 12 12 12 12 13 13 13 13 13 13 13 13 13 13 13 13 13 13 12 12 12 12 12 12 12 12 12 12
10 10 10 10 10 10 11 11 11 11 11 11 11 11 11 12 12 12 12 12 12 13 13 13 13 13 13 13 13 13 13 12 12 12 12 12 11 11 11 11 11 11 11
10 10 10 10 10 10 11 11 11 11 11 11 11 11 11 11 12 12 12 12 12 12 13 13 13 13 13 13 13 12 12 12 12 11 11 11 11 11 11 11 11 11 11
10 10 10 10 10 10 11 11 11 11 11 11 11 11 11 11 12 12 12 12 12 12 12 12 12 12 12 12 12 12 12 12 12 11 11 11 11 11 10 10 10 10 10
Wind_Speed
7 7 6 7 8 9 9 9 9 9 9 9 9 9 9 9 9 8 6 8 7 7 8 8 8 8 7 7 8 8 9 9 9 10 10 10 10 10 9 9 9 8 8
8 7 7 7 7 8 9 8 9 8 8 7 9 9 9 9 10 9 8 9 11 9 9 9 9 9 9 9 9 9 9 10 10 10 10 10 9 10 9 9 8 7 7
9 8 8 7 7 9 9 8 9 7 7 7 9 10 9 9 9 10 9 8 9 13 12 10 10 10 10 10 10 10 10 10 10 10 10 10 10 10 9 8 8 7 6
9 8 7 8 8 7 6 6 6 6 7 7 7 8 8 8 11 10 10 10 9 8 12 13 11 11 11 11 11 11 11 11 10 10 10 10 10 10 9 8 8 7 6
9 8 7 7 7 6 6 7 6 7 7 7 7 7 8 8 10 10 11 12 11 9 9 13 13 12 12 12 12 12 12 12 11 11 11 10 11 10 10 9 8 8 7
8 8 7 7 7 6 6 6 7 7 6 7 7 7 7 8 9 9 10 10 10 12 10 9 11 13 14 13 12 13 13 13 13 12 12 12 12 11 10 10 9 8 7
8 7 7 7 6 7 7 8 7 8 6 6 5 5 6 9 10 8 9 9 11 11 11 11 10 10 12 15 14 13 14 14 14 13 13 13 13 12 11 10 10 9 8
6 6 7 7 7 7 8 8 8 7 6 6 5 4 4 6 8 10 9 9 11 10 11 12 12 11 10 11 14 16 14 14 14 14 14 14 13 13 12 12 11 10 9
6 6 6 7 7 7 7 8 8 9 7 7 7 5 4 6 5 8 11 11 11 9 10 11 12 12 12 10 11 17 16 14 14 14 14 14 14 14 13 12 12 11 10
6 5 6 6 6 6 7 8 8 8 8 7 7 6 5 2 3 5 7 10 12 11 11 10 11 11 12 11 10 11 18 16 15 14 14 14 14 14 14 13 13 12 11
6 6 5 5 6 6 7 8 8 8 8 9 7 6 6 5 5 4 5 7 9 10 11 11 10 10 11 11 10 12 17 17 16 15 14 14 14 14 14 14 13 12 11
5 6 6 5 6 6 7 7 8 9 9 10 9 8 7 6 7 6 6 5 6 7 9 9 9 9 10 11 11 12 17 17 16 15 14 13 13 13 14 13 13 12 12
6 7 6 6 5 5 6 6 7 8 9 10 10 9 9 10 7 7 6 5 5 4 5 8 8 8 10 11 10 13 15 16 16 15 14 13 13 13 13 13 13 12 12
6 7 7 6 6 6 6 5 6 7 7 9 10 10 9 9 9 8 7 7 6 5 6 7 6 8 9 10 10 14 13 17 17 16 15 14 13 13 12 12 12 11 11
7 8 7 7 6 6 5 4 4 5 6 7 9 9 8 8 8 8 7 7 7 7 8 7 6 8 8 8 10 11 11 15 17 16 16 15 14 13 13 12 11 10 9
9 9 8 7 7 6 5 4 4 4 5 6 6 8 8 7 7 7 8 7 7 7 6 5 5 5 7 7 9 10 10 14 16 16 15 15 14 14 13 13 12 11 10
9 9 8 8 7 7 6 4 4 4 4 5 6 7 8 8 7 7 7 7 7 7 7 5 4 5 7 8 7 9 9 10 11 14 14 14 14 14 13 13 13 11 11
9 9 9 8 8 7 6 5 5 5 4 4 4 5 7 6 8 7 7 8 7 7 7 7 5 5 6 7 7 8 7 8 8 12 13 13 13 13 13 12 12 12 11
9 9 9 9 8 7 7 6 5 5 4 3 3 3 4 6 7 6 7 7 6 6 6 6 6 4 4 5 7 6 7 6 7 10 11 11 11 11 12 12 12 12 11
9 9 8 8 8 7 7 6 5 4 3 3 2 1 1 2 4 6 6 7 6 6 6 6 6 5 4 5 7 7 6 5 5 6 7 8 10 11 11 11 11 11 11
8 8 8 8 8 8 9 9 7 5 4 3 3 3 3 2 2 2 3 5 6 6 5 5 6 5 6 6 6 6 7 6 4 4 5 5 6 6 7 9 9 10 10
8 8 9 8 8 8 12 12 9 5 5 4 3 3 2 2 2 1 1 1 3 5 6 6 6 6 7 7 6 7 7 7 4 4 5 4 4 4 4 6 8 10 10
7 8 8 8 8 9 12 12 11 6 4 4 4 4 3 3 1 1 3 4 3 2 3 5 6 6 6 7 8 8 8 7 5 7 6 4 4 4 4 7 9 9 9
6 7 7 7 7 8 12 12 12 6 4 4 4 4 3 2 3 3 0 1 2 2 2 4 4 4 4 6 8 8 7 7 7 5 4 4 4 3 4 6 8 9 9
6 6 6 6 6 7 10 12 11 5 4 4 3 4 4 3 4 4 1 2 2 3 4 3 3 4 4 5 7 7 9 9 6 4 3 4 5 4 3 3 6 8 9
5 5 5 5 6 6 8 10 11 4 4 3 3 3 6 6 5 5 1 1 2 2 3 5 5 6 6 7 7 8 8 9 6 4 4 5 6 4 3 2 3 6 7
Wind_Direction
259 253 254 251 248 246 239 237 236 232 234 238 239 239 235 227 229 221 194 174 205 219 218 208 202 198 194 188 179 171 165 161 161 159 156 151 148 146 144 140 137 134 131
263 258 254 251 250 250 250 246 240 237 237 238 240 238 242 236 233 225 222 191 197 211 217 215 208 202 198 194 188 180 174 169 167 166 163 160 156 154 150 148 146 143 141
269 265 260 254 249 246 245 245 243 239 234 232 234 235 233 237 237 229 220 221 204 198 207 213 211 207 202 198 195 186 180 175 175 173 170 167 164 161 159 158 156 154 151
272 272 263 259 254 249 241 237 234 229 228 226 230 227 227 223 232 233 225 217 217 207 195 199 205 209 206 203 200 192 185 182 181 180 178 175 171 170 170 171 172 171 169
275 270 265 263 260 250 243 240 231 225 228 222 225 231 234 230 228 226 228 224 212 210 206 179 195 205 207 206 204 199 193 190 189 187 184 183 180 179 180 180 183 183 184
280 276 265 258 253 247 243 239 239 228 228 220 226 231 234 236 230 228 233 229 223 212 213 196 195 200 204 206 206 204 200 198 195 194 191 191 188 188 189 191 192 193 196
287 276 270 261 251 246 243 240 237 231 222 212 214 229 239 242 238 226 230 231 224 218 212 207 210 202 195 201 206 208 206 204 202 201 199 197 195 195 197 200 200 203 206
297 281 273 268 256 251 246 240 233 232 220 203 203 204 227 230 232 230 224 229 231 213 219 217 209 207 209 196 197 201 208 207 206 206 205 203 201 202 203 204 207 209 211
308 293 284 278 269 257 250 244 236 232 227 212 209 203 207 220 219 220 221 220 226 222 216 221 218 210 209 209 191 193 201 206 208 210 210 209 206 206 208 208 211 212 214
326 312 293 281 273 265 257 250 239 237 232 222 216 220 225 215 214 216 216 221 219 219 220 218 221 220 211 212 203 188 192 204 209 213 213 212 210 209 210 211 213 214 215
334 329 314 297 286 275 266 259 251 241 234 227 215 208 215 220 231 225 215 215 217 219 219 220 217 218 216 214 207 197 187 200 207 212 215 214 211 210 210 211 213 214 215
335 335 325 311 299 288 277 267 255 244 239 234 226 215 208 208 212 217 224 219 217 217 217 220 220 215 213 213 209 182 186 198 204 208 212 213 211 210 209 210 212 215 215
338 336 329 319 311 300 286 274 260 249 241 235 231 226 222 223 214 212 218 222 222 216 214 217 217 214 211 210 204 177 189 197 203 206 208 210 210 211 209 211 212 211 212
336 335 330 324 317 308 297 283 268 256 246 237 234 231 229 225 218 213 213 211 214 217 217 215 212 215 212 207 198 182 194 195 201 202 203 205 205 205 204 207 210 211 213
340 341 337 335 328 318 310 299 281 269 260 246 237 233 231 228 221 215 212 211 211 219 221 212 203 209 205 205 182 193 200 188 195 197 197 198 198 198 198 199 200 201 204
351 347 346 342 338 333 325 316 302 288 268 257 245 238 233 229 220 212 212 214 218 224 229 213 206 198 197 202 193 201 201 174 186 191 194 194 194 194 195 194 193 193 196
353 352 350 348 348 345 340 332 319 307 290 270 251 237 233 228 220 211 206 208 212 216 227 219 200 198 195 198 186 197 195 186 184 183 187 188 188 188 188 188 189 189 188
356 355 355 356 355 351 348 347 339 331 319 298 268 241 232 225 219 213 209 208 207 211 216 214 195 194 201 195 187 188 187 184 178 168 176 178 179 181 181 181 182 182 183
357 360 2 3 358 354 357 354 350 346 346 330 299 256 239 227 220 213 211 206 202 204 209 205 192 186 192 185 178 177 175 167 165 156 160 164 166 170 173 176 176 176 178
359 3 5 3 2 2 2 360 0 1 4 3 348 324 274 239 233 220 209 204 199 200 203 201 190 183 182 180 176 170 167 158 159 149 143 147 151 157 162 167 172 175 176
1 6 7 7 9 10 8 1 357 358 6 12 12 26 27 18 357 278 230 206 196 195 195 196 191 184 182 178 180 172 164 147 142 147 138 137 139 144 152 157 163 170 173
3 8 7 9 11 16 7 2 353 356 2 9 10 17 41 64 79 159 207 230 217 205 197 198 198 195 193 186 176 170 161 158 158 156 145 130 133 136 132 140 146 154 156
4 5 6 7 10 17 10 6 356 349 9 15 11 14 24 33 5 107 160 179 172 183 228 222 208 205 194 186 180 176 175 170 154 153 142 128 130 120 105 113 132 143 148
0 359 0 2 5 14 10 4 345 348 12 17 12 7 10 21 17 5 55 161 156 156 201 218 214 202 187 182 180 175 159 139 121 136 143 131 135 120 112 108 119 131 138
352 351 356 354 356 10 12 360 344 2 11 21 23 21 10 21 30 343 323 142 135 118 98 90 94 122 124 145 155 156 155 152 144 144 152 136 139 128 124 121 114 126 133
340 340 347 348 351 359 12 360 345 355 8 17 25 37 38 21 17 346 312 131 130 124 135 138 136 141 145 147 161 171 167 163 151 151 163 147 149 149 140 138 140 143 136
Height
1535 1536 1536 1537 1539 1540 1541 1542 1543 1545 1546 1547 1549 1550 1552 1552 1553 1554 1555 1554 1555 1555 1556 1556 1557 1558 1558 1559 1560 1562 1563 1564 1565 1566 1567 1568 1569 1570 1571 1572 1573 1574 1574
1531 1531 1532 1532 1534 1536 1537 1538 1539 1541 1542 1544 1545 1547 1548 1550 1551 1552 1553 1553 1553 1554 1554 1555 1556 1557 1557 1559 1560 1561 1562 1563 1565 1566 1567 1568 1569 1570 1571 1572 1573 1574 1574
1526 1527 1527 1528 1529 1531 1532 1534 1535 1536 1538 1540 1542 1544 1545 1547 1548 1550 1551 1552 1553 1552 1553 1553 1554 1555 1556 1557 1559 1560 1561 1563 1564 1565 1567 1568 1569 1570 1571 1572 1573 1574 1574
1522 1522 1523 1524 1525 1526 1527 1529 1531 1532 1534 1536 1538 1540 1542 1543 1545 1547 1548 1550 1551 1552 1552 1552 1552 1554 1555 1556 1557 1559 1560 1562 1563 1565 1566 1567 1568 1570 1571 1572 1572 1573 1574
1518 1518 1518 1519 1521 1521 1523 1524 1526 1528 1530 1532 1534 1536 1538 1540 1542 1544 1545 1547 1549 1549 1551 1550 1551 1552 1553 1554 1556 1557 1559 1560 1562 1563 1565 1566 1567 1569 1570 1571 1572 1572 1573
1514 1515 1514 1515 1516 1517 1518 1520 1522 1523 1525 1528 1530 1532 1534 1536 1538 1540 1542 1544 1546 1547 1549 1549 1549 1550 1551 1552 1554 1555 1557 1558 1560 1562 1563 1565 1566 1567 1569 1570 1571 1571 1572
1511 1511 1511 1512 1512 1513 1514 1516 1517 1519 1520 1523 1526 1527 1529 1532 1534 1536 1538 1540 1542 1544 1546 1547 1548 1549 1549 1550 1551 1553 1555 1556 1558 1560 1561 1563 1565 1566 1567 1568 1569 1570 1571
1507 1507 1508 1508 1508 1509 1510 1511 1513 1514 1516 1518 1520 1523 1525 1528 1528 1531 1533 1535 1538 1540 1542 1544 1546 1547 1548 1548 1549 1550 1552 1554 1556 1558 1559 1561 1562 1564 1565 1566 1567 1568 1569
1505 1504 1504 1504 1505 1505 1506 1507 1508 1510 1511 1513 1516 1519 1520 1521 1524 1526 1529 1531 1534 1536 1538 1540 1542 1544 1545 1546 1547 1547 1549 1551 1553 1555 1557 1559 1560 1562 1563 1564 1565 1566 1567
1502 1501 1501 1501 1501 1501 1502 1503 1504 1505 1507 1508 1510 1513 1515 1517 1520 1521 1524 1526 1528 1531 1533 1536 1538 1540 1542 1543 1544 1544 1546 1548 1550 1552 1554 1556 1558 1559 1560 1562 1563 1564 1565
1500 1499 1499 1498 1498 1498 1498 1499 1500 1501 1502 1504 1505 1507 1510 1512 1515 1517 1518 1521 1523 1526 1529 1531 1533 1536 1538 1539 1540 1541 1543 1545 1547 1549 1551 1553 1555 1556 1558 1559 1560 1561 1562
1499 1498 1497 1496 1495 1495 1495 1495 1496 1496 1497 1499 1501 1503 1504 1506 1508 1511 1513 1515 1518 1520 1523 1526 1528 1531 1533 1535 1536 1537 1540 1542 1544 1546 1548 1550 1552 1553 1555 1556 1557 1558 1559
1498 1496 1495 1494 1493 1492 1492 1492 1492 1492 1493 1494 1496 1497 1499 1501 1504 1506 1508 1511 1513 1515 1518 1520 1523 1526 1528 1530 1532 1534 1536 1538 1540 1542 1544 1546 1548 1550 1552 1553 1554 1555 1556
1497 1495 1493 1492 1491 1490 1489 1488 1488 1489 1489 1490 1491 1493 1494 1496 1498 1500 1503 1506 1508 1511 1513 1515 1517 1520 1523 1525 1528 1530 1532 1534 1536 1539 1541 1543 1545 1547 1548 1550 1551 1552 1553
1497 1494 1492 1491 1489 1488 1487 1486 1486 1485 1485 1486 1487 1488 1489 1491 1493 1495 1498 1500 1504 1505 1507 1509 1512 1515 1518 1520 1523 1525 1528 1530 1532 1535 1537 1539 1541 1543 1545 1546 1547 1549 1550
1496 1494 1492 1490 1488 1486 1485 1484 1483 1483 1482 1482 1483 1484 1485 1487 1488 1490 1493 1495 1498 1501 1503 1505 1507 1509 1512 1515 1518 1521 1523 1526 1528 1530 1533 1535 1537 1539 1541 1542 1544 1545 1546
1496 1494 1491 1489 1487 1485 1484 1483 1481 1481 1480 1480 1480 1480 1481 1483 1484 1486 1488 1490 1492 1496 1498 1500 1502 1505 1508 1510 1513 1516 1519 1521 1523 1526 1528 1531 1533 1535 1536 1538 1540 1541 1542
1497 1494 1491 1489 1487 1485 1483 1482 1480 1479 1478 1477 1477 1477 1478 1479 1480 1482 1484 1486 1488 1490 1493 1495 1497 1500 1503 1506 1508 1511 1514 1516 1519 1521 1524 1526 1528 1530 1532 1534 1536 1537 1539
1497 1495 1492 1489 1487 1484 1483 1481 1479 1478 1476 1475 1475 1475 1475 1476 1477 1479 1480 1482 1484 1486 1489 1491 1493 1495 1498 1501 1504 1506 1509 1512 1514 1516 1519 1521 1524 1526 1528 1530 1532 1533 1535
1498 1495 1493 1490 1487 1485 1483 1481 1479 1478 1476 1475 1474 1473 1473 1474 1475 1477 1478 1479 1481 1483 1485 1487 1489 1491 1494 1496 1499 1502 1505 1507 1510 1512 1515 1517 1520 1522 1524 1526 1528 1530 1531
1499 1496 1494 1491 1488 1486 1483 1482 1480 1479 1477 1476 1474 1473 1472 1472 1473 1474 1476 1477 1478 1480 1482 1484 1485 1488 1490 1492 1494 1497 1500 1503 1506 1509 1511 1514 1516 1518 1520 1522 1524 1526 1527
1500 1497 1494 1492 1489 1487 1484 1482 1480 1479 1478 1476 1475 1474 1473 1472 1473 1473 1474 1475 1476 1478 1480 1481 1483 1484 1486 1488 1491 1494 1496 1499 1502 1506 1508 1510 1513 1515 1517 1519 1520 1522 1524
1500 1497 1495 1493 1490 1488 1485 1483 1481 1480 1479 1477 1476 1475 1474 1473 1473 1473 1473 1473 1474 1476 1478 1479 1481 1482 1484 1485 1487 1490 1493 1496 1498 1501 1505 1508 1510 1512 1514 1516 1518 1520 1521
1501 1498 1496 1493 1491 1488 1486 1484 1482 1481 1479 1478 1476 1476 1475 1474 1473 1473 1473 1473 1474 1475 1476 1478 1479 1480 1482 1484 1485 1488 1490 1494 1497 1500 1503 1505 1508 1510 1512 1514 1516 1517 1519
1501 1499 1496 1494 1492 1490 1487 1485 1483 1482 1480 1478 1477 1476 1475 1474 1473 1473 1473 1473 1473 1474 1475 1476 1477 1478 1480 1481 1483 1486 1488 1491 1493 1497 1500 1503 1506 1508 1511 1512 1514 1516 1517
1501 1499 1496 1494 1492 1490 1488 1486 1483 1483 1481 1479 1478 1476 1475 1474 1473 1473 1474 1473 1473 1474 1474 1475 1476 1477 1479 1480 1482 1485 1487 1489 1491 1495 1498 1501 1503 1506 1509 1511 1512 1514 1515